Home > Weather > Cleveland > Past weeks

Flag for USA Past Weather in Cleveland, Tennessee, USA — Yesterday and Last 2 Weeks

Now
82 °F

Passing clouds.


Feels Like: 81 °F
Forecast: 64 / 91 °F
Wind: 6 mph from North

Location: Lovell Field

Current Time: Jun 30, 2016 at 10:48:41 PM

Latest Report: Jun 30, 2016 at 9:53 PM


Visibility: 10 mi

Pressure: 29.94 "Hg

Humidity: 35%

Dew Point: 52 °F

Location of ClevelandLocation

Past Weather in Cleveland — Graph

°F

Cleveland Temperature Yesterday

Maximum temperature yesterday: 93 °F (at 4:53 PM)
Minimum temperature yesterday: 70 °F (at 5:53 AM)
Average temperature yesterday: 81 °F

High & Low Weather Summary for the Past Weeks

 TemperatureHumidityPressure
High98 °F (Jun 25, 4:53 PM)94% (Jun 27, 9:53 PM)30.34 "Hg (Jun 27, 9:53 PM)
Low63 °F (Jun 20, 5:53 AM)17% (Jun 30, 3:53 PM)29.78 "Hg (Jun 17, 3:53 PM)
Average82 °F57%30.03 "Hg
* Reported Jun 15 8:53 PM — Jun 30 8:53 PM, Cleveland, Weather by CustomWeather, © 2016

Note: Actual official high and low records may vary slightly from our data, if they occured in-between our weather recording intervals... More about our weather records

Advertising

Cleveland Weather History for the Previous 24 Hours

Scroll right to see more
 ConditionsComfort  
Time TempWeatherWind HumidityBarometerVisibility
8:53 PM
Thu, Jun 30
85 °FPassing clouds.7 mph29%29.93 "Hg10 mi
7:53 PM90 °FPassing clouds.14 mph25%29.91 "Hg10 mi
6:53 PM93 °FPassing clouds.12 mph24%29.90 "Hg10 mi
5:53 PM94 °FPassing clouds.9 mph22%29.90 "Hg10 mi
4:53 PM94 °FPassing clouds.3 mph17%29.91 "Hg10 mi
3:53 PM94 °FPassing clouds.5 mph17%29.93 "Hg10 mi
2:53 PM91 °FPassing clouds.5 mph22%29.94 "Hg10 mi
1:53 PM89 °FPassing clouds.7 mph19%29.96 "Hg10 mi
12:53 PM87 °FPassing clouds.9 mph29%29.97 "Hg10 mi
11:53 AM85 °FScattered clouds.7 mph37%29.98 "Hg10 mi
10:53 AM81 °FScattered clouds.10 mph44%30.00 "Hg10 mi
9:53 AM78 °FScattered clouds.9 mph48%30.01 "Hg10 mi
8:53 AM75 °FScattered clouds.9 mph54%30.00 "Hg10 mi
7:53 AM70 °FScattered clouds.3 mph66%29.99 "Hg10 mi
6:53 AM66 °FPassing clouds.No wind70%29.99 "Hg10 mi
5:53 AM67 °FPassing clouds.No wind68%29.98 "Hg10 mi
4:53 AM68 °FClear.No wind63%29.97 "Hg10 mi
3:53 AM67 °FClear.5 mph68%29.97 "Hg10 mi
2:53 AM69 °FClear.3 mph63%29.97 "Hg10 mi
1:53 AM70 °FClear.6 mph64%29.98 "Hg10 mi
12:53 AM74 °FClear.6 mph53%29.98 "Hg10 mi
11:53 PM
Wed, Jun 29
75 °FClear.8 mph52%29.98 "Hg10 mi
10:53 PM75 °FPassing clouds.6 mph54%29.98 "Hg10 mi
Weather by CustomWeather, © 2016

See weather overviewHow to use our weather pages